Location: Unspecified
(32.7310°N, 0.0000°E)
Time: 10:42:50
(UTC+00:00)

Envisat - Pass Details

Date: 21 May 2019
Orbit: 764 x 766 km, 98.1° (Epoch: 18 June)

Event Time Altitude Azimuth Distance (km) Brightness Sun altitude
Rises 19:48:05 0° 210° (SSW) 3,218 6.2 -10.5°
Reaches altitude 10° 19:51:26 10° 234° (SW) 2,297 5.7 -11.1°
Maximum altitude 19:54:11 15° 267° (W) 1,996 6.0 -11.5°
Drops below altitude 10° 19:56:56 10° 300° (WNW) 2,304 7.0 -12.0°
Sets 20:00:20 0° 324° (NW) 3,235 7.7 -12.6°
